| time (UTC) | temp F | wind direction | speed knots | gust knots | rain 1hr in | rain 24hr in | rain mn in | humidity % | barometer mb |
| 20260508043028 | 44 | 0 | 0.0 | 0.0 | 0.00 | 0.85 | 0.00 | 99 | 1001.3 |
| 20260508041528 | 44 | 0 | 0.0 | 0.0 | 0.00 | 0.85 | 0.00 | 99 | 1001.5 |
| 20260508040034 | 44 | 0 | 0.0 | 0.9 | 0.00 | 0.85 | 0.00 | 99 | 1001.6 |
| 20260508034535 | 44 | 252 | 0.0 | 3.5 | 0.00 | 0.85 | 0.00 | 99 | 1001.9 |
| 20260508033029 | 43 | 244 | 0.9 | 2.6 | 0.00 | 0.85 | 0.00 | 99 | 1001.9 |
| 20260508031527 | 43 | 242 | 2.6 | 5.2 | 0.00 | 0.85 | 0.00 | 99 | 1002.0 |
| 20260508030029 | 43 | 229 | 1.7 | 5.2 | 0.00 | 0.85 | 0.00 | 99 | 1002.3 |
| 20260508024528 | 43 | 248 | 2.6 | 6.1 | 0.00 | 0.85 | 0.85 | 99 | 1001.9 |
| 20260508023035 | 43 | 221 | 4.3 | 7.0 | 0.00 | 0.85 | 0.85 | 99 | 1001.8 |
| 20260508021527 | 43 | 236 | 2.6 | 7.0 | 0.00 | 0.85 | 0.85 | 99 | 1001.9 |
| 20260508020028 | 42 | 228 | 3.5 | 7.8 | 0.00 | 0.85 | 0.85 | 99 | 1002.1 |
| 20260508014528 | 42 | 225 | 5.2 | 8.7 | 0.00 | 0.85 | 0.85 | 99 | 1002.3 |
| 20260508013028 | 43 | 201 | 2.6 | 6.1 | 0.00 | 0.85 | 0.85 | 99 | 1002.2 |
| 20260508011529 | 43 | 175 | 1.7 | 5.2 | 0.00 | 0.85 | 0.85 | 99 | 1002.3 |
| 20260508010030 | 43 | 220 | 2.6 | 9.6 | 0.00 | 0.85 | 0.85 | 99 | 1002.0 |
| 20260508004606 | 43 | 200 | 4.3 | 10.4 | 0.00 | 0.85 | 0.85 | 99 | 1002.4 |
| 20260508004532 | 43 | 200 | 4.3 | 10.4 | 0.00 | 0.85 | 0.85 | 99 | 1002.4 |
| 20260508003032 | 43 | 207 | 4.3 | 9.6 | 0.00 | 0.85 | 0.85 | 99 | 1002.7 |
| 20260508001544 | 43 | 209 | 3.5 | 7.8 | 0.00 | 0.85 | 0.85 | 99 | 1002.7 |
| 20260508000027 | 43 | 196 | 3.5 | 11.3 | 0.00 | 0.85 | 0.85 | 99 | 1002.9 |
| 20260507234529 | 43 | 198 | 6.1 | 10.4 | 0.00 | 0.85 | 0.85 | 99 | 1003.0 |
| 20260507233034 | 43 | 195 | 5.2 | 12.2 | 0.00 | 0.85 | 0.85 | 98 | 1002.8 |
| 20260507231531 | 44 | 204 | 6.1 | 12.2 | 0.00 | 0.85 | 0.85 | 98 | 1003.1 |
| 20260507230035 | 44 | 221 | 4.3 | 11.3 | 0.00 | 0.85 | 0.85 | 98 | 1003.0 |
| 20260507224533 | 45 | 219 | 5.2 | 10.4 | 0.01 | 0.85 | 0.85 | 98 | 1003.1 |
| 20260507223027 | 45 | 240 | 3.5 | 9.6 | 0.01 | 0.85 | 0.85 | 99 | 1003.3 |
| 20260507221528 | 46 | 126 | 5.2 | 10.4 | 0.01 | 0.85 | 0.85 | 99 | 1003.3 |
| 20260507220031 | 46 | 217 | 3.5 | 9.6 | 0.05 | 0.85 | 0.85 | 99 | 1003.7 |
| 20260507214530 | 46 | 147 | 4.3 | 13.0 | 0.09 | 0.84 | 0.84 | 99 | 1003.4 |
| 20260507213036 | 46 | 136 | 5.2 | 8.7 | 0.16 | 0.84 | 0.84 | 99 | 1002.9 |
| 20260507211543 | 46 | 165 | 4.3 | 11.3 | 0.23 | 0.83 | 0.83 | 98 | 1003.8 |
| 20260507210028 | 46 | 221 | 4.3 | 13.9 | 0.30 | 0.80 | 0.80 | 99 | 1004.2 |
| 20260507204528 | 46 | 180 | 4.3 | 13.0 | 0.43 | 0.75 | 0.75 | 99 | 1004.5 |
| 20260507203028 | 45 | 174 | 3.5 | 13.0 | 0.44 | 0.67 | 0.67 | 98 | 1005.2 |
| 20260507201536 | 45 | 226 | 10.4 | 14.8 | 0.42 | 0.58 | 0.58 | 98 | 1005.3 |
| 20260507200034 | 45 | 135 | 6.1 | 16.5 | 0.36 | 0.49 | 0.49 | 98 | 1004.9 |
| 20260507194527 | 45 | 200 | 4.3 | 9.6 | 0.23 | 0.31 | 0.31 | 98 | 1005.5 |
| 20260507193028 | 45 | 94 | 5.2 | 15.6 | 0.16 | 0.22 | 0.22 | 98 | 1005.4 |
| 20260507191530 | 45 | 174 | 7.0 | 15.6 | 0.13 | 0.17 | 0.17 | 98 | 1005.6 |
| 20260507190028 | 46 | 173 | 6.1 | 16.5 | 0.10 | 0.12 | 0.12 | 98 | 1006.2 |
| 20260507184527 | 46 | 173 | 6.1 | 21.7 | 0.07 | 0.08 | 0.08 | 98 | 1006.0 |
| 20260507183032 | 46 | 177 | 7.8 | 20.0 | 0.04 | 0.05 | 0.05 | 98 | 1005.9 |
| 20260507181528 | 46 | 171 | 8.7 | 20.9 | 0.03 | 0.04 | 0.04 | 98 | 1006.1 |
| 20260507180043 | 46 | 136 | 7.8 | 20.9 | 0.01 | 0.02 | 0.02 | 98 | 1006.0 |
| 20260507174532 | 46 | 162 | 8.7 | 17.4 | 0.00 | 0.01 | 0.01 | 98 | 1006.3 |
| 20260507173030 | 46 | 184 | 8.7 | 18.2 | 0.00 | 0.01 | 0.01 | 98 | 1006.8 |
| 20260507171526 | 46 | 188 | 7.0 | 18.2 | 0.00 | 0.01 | 0.01 | 98 | 1007.1 |
| 20260507170044 | 46 | 196 | 9.6 | 20.0 | 0.00 | 0.01 | 0.01 | 98 | 1007.2 |
| 20260507164530 | 47 | 117 | 8.7 | 18.2 | 0.00 | 0.01 | 0.01 | 98 | 1007.6 |
| 20260507163027 | 47 | 196 | 8.7 | 20.9 | 0.00 | 0.01 | 0.01 | 98 | 1007.9 |
| 20260507161530 | 46 | 161 | 8.7 | 20.0 | 0.00 | 0.01 | 0.01 | 98 | 1008.3 |
| 20260507160029 | 46 | 164 | 7.0 | 16.5 | 0.00 | 0.01 | 0.01 | 98 | 1008.8 |
| 20260507154528 | 46 | 335 | 7.8 | 18.2 | 0.00 | 0.01 | 0.01 | 98 | 1009.2 |
| 20260507153027 | 46 | 207 | 6.1 | 19.1 | 0.00 | 0.01 | 0.01 | 98 | 1009.4 |
| 20260507151528 | 47 | 206 | 8.7 | 16.5 | 0.00 | 0.01 | 0.01 | 98 | 1009.8 |
| 20260507150028 | 46 | 207 | 7.0 | 19.1 | 0.01 | 0.01 | 0.01 | 98 | 1009.9 |
| 20260507144528 | 47 | 169 | 7.8 | 20.0 | 0.01 | 0.01 | 0.01 | 98 | 1010.2 |
| 20260507143030 | 47 | 155 | 7.0 | 17.4 | 0.01 | 0.01 | 0.01 | 98 | 1010.5 |
| 20260507141528 | 45 | 167 | 7.0 | 13.9 | 0.01 | 0.01 | 0.01 | 98 | 1011.1 |
| 20260507140035 | 46 | 177 | 9.6 | 20.0 | 0.00 | 0.00 | 0.00 | 97 | 1011.5 |
| 20260507134526 | 46 | 208 | 7.8 | 20.0 | 0.00 | 0.00 | 0.00 | 97 | 1011.4 |
| 20260507133028 | 47 | 184 | 10.4 | 20.0 | 0.00 | 0.00 | 0.00 | 97 | 1011.2 |
| 20260507131535 | 47 | 221 | 8.7 | 24.3 | 0.00 | 0.00 | 0.00 | 98 | 1011.5 |
| 20260507130031 | 46 | 180 | 8.7 | 19.1 | 0.00 | 0.00 | 0.00 | 98 | 1011.2 |
| 20260507124530 | 46 | 191 | 8.7 | 16.5 | 0.00 | 0.00 | 0.00 | 98 | 1011.8 |
| 20260507123028 | 45 | 179 | 8.7 | 14.8 | 0.00 | 0.00 | 0.00 | 97 | 1011.8 |
| 20260507121526 | 45 | 168 | 8.7 | 20.9 | 0.00 | 0.00 | 0.00 | 97 | 1012.6 |
| 20260507120028 | 45 | 201 | 7.8 | 18.2 | 0.00 | 0.00 | 0.00 | 97 | 1013.0 |
| 20260507114529 | 46 | 207 | 7.0 | 18.2 | 0.00 | 0.00 | 0.00 | 97 | 1013.2 |
| 20260507113028 | 46 | 173 | 7.0 | 19.1 | 0.00 | 0.00 | 0.00 | 98 | 1013.0 |
| 20260507111528 | 46 | 177 | 6.1 | 17.4 | 0.00 | 0.00 | 0.00 | 98 | 1013.3 |
| 20260507110031 | 47 | 153 | 7.0 | 18.2 | 0.00 | 0.00 | 0.00 | 98 | 1013.1 |
| 20260507104531 | 46 | 192 | 6.1 | 15.6 | 0.00 | 0.00 | 0.00 | 98 | 1013.2 |
| 20260507083026 | 44 | 335 | 6.1 | 11.3 | 0.00 | 0.00 | 0.00 | 97 | 1014.2 |
| 20260507081529 | 44 | 200 | 4.3 | 11.3 | 0.00 | 0.00 | 0.00 | 97 | 1014.0 |
| 20260507080027 | 44 | 210 | 5.2 | 13.0 | 0.00 | 0.00 | 0.00 | 96 | 1014.3 |
| 20260507074529 | 45 | 215 | 7.8 | 11.3 | 0.00 | 0.00 | 0.00 | 96 | 1014.4 |
| 20260507073027 | 45 | 248 | 7.0 | 14.8 | 0.00 | 0.00 | 0.00 | 96 | 1014.5 |
| 20260507071529 | 46 | 246 | 9.6 | 15.6 | 0.00 | 0.00 | 0.00 | 96 | 1014.7 |
| 20260507070028 | 46 | 204 | 6.1 | 16.5 | 0.00 | 0.00 | 0.00 | 96 | 1015.0 |
| 20260507064529 | 47 | 225 | 5.2 | 13.0 | 0.00 | 0.00 | 0.00 | 96 | 1015.1 |
| 20260507063027 | 47 | 206 | 7.8 | 15.6 | 0.00 | 0.00 | 0.00 | 96 | 1015.3 |
| 20260507061529 | 46 | 213 | 6.1 | 11.3 | 0.00 | 0.00 | 0.00 | 96 | 1015.6 |
| 20260507060026 | 47 | 171 | 6.1 | 10.4 | 0.00 | 0.00 | 0.00 | 97 | 1015.8 |
| 20260507054525 | 47 | 214 | 2.6 | 7.8 | 0.00 | 0.00 | 0.00 | 97 | 1016.0 |
| 20260507053030 | 47 | 215 | 3.5 | 8.7 | 0.00 | 0.00 | 0.00 | 97 | 1016.1 |
| 20260507051526 | 47 | 184 | 5.2 | 9.6 | 0.00 | 0.00 | 0.00 | 97 | 1016.6 |
| 20260507050040 | 48 | 335 | 3.5 | 8.7 | 0.00 | 0.00 | 0.00 | 97 | 1016.8 |
| 20260507044526 | 48 | 244 | 7.0 | 10.4 | 0.00 | 0.00 | 0.00 | 97 | 1017.1 |